カタログに戻る

STARLINK-34330

運用中通信VLEO
NORAD 64227·PAYLOAD·🇺🇸 United States

打ち上げ May 31, 2025 から Vandenberg Space Force Base

Loading…

次のパス (今後24時間)

TLE

最新Source: CelesTrak SupGP

元期: Sep 15, 2026, 03:45 UTC

1 64227C 25117AA  26258.15673611 -.00054636  00000+0 -16142-2 0  2589
2 64227  53.1575 238.3903 0001364  95.2119 141.1028 15.34418980    19

AllMySatでSTARLINK-34330をリアルタイム追跡

Download on the App Store